Location: Piotrkow Trybunalski
(51.4000°N, 19.6830°E)
Time: 12:18:19
(UTC+02:00)

A-11 Canister half - Pass Details

Date: 30 January 2023
Orbit: 1526 x 1682 km, 47.3° (Epoch: 26 March)

Event Time Altitude Azimuth Distance (km) Brightness Sun altitude
Rises 05:17:00 0° 195° (SSW) 4,664 11.4 -19.6°
Reaches altitude 10° 05:20:46 10° 183° (S) 3,685 11.0 -19.0°
Maximum altitude 05:27:39 24° 134° (SE) 2,761 10.9 -17.9°
Drops below altitude 10° 05:34:36 10° 85° (E) 3,737 12.3 -16.8°
Sets 05:38:25 0° 73° (ENE) 4,744 12.8 -16.2°
